Content
SEND FEEDBACK

Daily
Averages
Monthly
Summary
United States of America

RED BLUFF, CALIFORNIA


Home > North America > United States > California
Elevation: 344 feet     Latitude: 40 09N     Longitude: 122 15W

WEATHER
 
SELECT A DAY
Number of Records: 183,041;   Date Range: 1/1/95 - 8/30/14
 
SHARE

PRINT THIS DATA

[ ← Previous Day ]
WEATHER ALMANAC - JUNE 14, 2013
[ Next Day → ]
[ °C ]   °F
Weather ElementAverageHighLow
Temperature78.3 °F91.9 °F (4:54 pm)66 °F (5:54 am)
Dewpoint26.6 °F33.1 °F (1:54 am)12.9 °F (6:54 pm)
Humidity17.1 %28 % (5:54 am)6 % (5:54 pm)
Barometer29.89 in30.03 in (1:54 am)29.76 in (8:54 pm)
Wind Speed9.8 mph21.9 mph (8:54 am)
Wind Gust28.8 mph (8:54 am)
Weather ElementAverage
Visibility10 mi
Wind DirectionSW (220.9 °)

Weather ElementTotal
Precipitation---
Cooling Degree Days14 (Base 65)
Growing Degree Days29 (Base 50)
Averaged from 23 records on June 14, 2013
WEATHER CONDITIONS BREAKOUT
WIND DIRECTION BREAKOUT
WEATHER BY HOUR - JUNE 14, 2013
[ °C ]   °F
Local TimeTemperatureDewpointHumidityBarometerVisibilityWind DirectionWind SpeedGust SpeedPrecipitationEventsConditions
1:54 AM70.0 °F33.1 °F26 %30.03 in10.0 miNorth (350°)11.5 mphClear
2:54 AM69.1 °F30.9 °F24 %30.02 in10.0 miNorth (350°)16.1 mph27.6 mphClear
3:54 AM68.0 °F30.9 °F25 %30.01 in10.0 miNNW (340°)17.3 mph26.5 mphClear
4:54 AM66.9 °F32.0 °F27 %30.01 in10.0 miNorth (350°)13.8 mph23.0 mphClear
5:54 AM66.0 °F32.0 °F28 %30.01 in10.0 miNorth (350°)13.8 mph21.9 mphClear
6:54 AM66.9 °F33.1 °F28 %30.00 in10.0 miNNW (340°)17.3 mphClear
7:54 AM70.0 °F33.1 °F26 %30.00 in10.0 miNorth (360°)18.4 mph25.3 mphClear
8:54 AM72.0 °F32.0 °F23 %29.99 in10.0 miNNW (340°)21.9 mph28.8 mphClear
9:54 AM75.9 °F32.0 °F20 %29.96 in10.0 miNorth (350°)19.6 mph26.5 mphClear
10:54 AM80.1 °F30.0 °F16 %29.94 in10.0 miNNW (340°)15.0 mph23.0 mphClear
11:54 AM84.0 °F28.9 °F14 %29.92 in10.0 miNorth (10°)15.0 mph20.7 mphClear
12:54 PM86.0 °F26.1 °F11 %29.89 in10.0 miNNW (340°)13.8 mph19.6 mphClear
1:54 PM89.1 °F21.9 °F9 %29.87 in10.0 miNW (320°)11.5 mphClear
2:54 PM90.0 °F19.9 °F8 %29.85 in10.0 miNW (320°)6.9 mphClear
3:54 PM91.0 °F19.9 °F7 %29.82 in10.0 miVariable6.9 mphClear
4:54 PM91.9 °F19.0 °F7 %29.80 in10.0 miCalmClear
5:54 PM91.9 °F16.0 °F6 %29.78 in10.0 miCalmClear
6:54 PM91.0 °F12.9 °F6 %29.77 in10.0 miWNW (300°)3.5 mphClear
7:54 PM89.1 °F15.1 °F6 %29.77 in10.0 miCalmClear
8:54 PM79.0 °F28.9 °F16 %29.76 in10.0 miNW (320°)3.5 mphClear
9:54 PM73.0 °F30.9 °F21 %29.77 in10.0 miCalmClear
10:54 PM68.0 °F28.9 °F23 %29.78 in10.0 miCalmClear
11:54 PM72.0 °F24.1 °F17 %29.79 in10.0 miCalmClear
Hourly data recorded from KRBL, located miles away from Red Bluff, California







STORIES FROM OUR PARTNERS